| time (UTC) | temp C | wind direction | speed KPH | gust KPH | rain 1hr cm | rain 24hr cm | rain mn cm | humidity % | barometer mb |
| 20260502190031 | 20 | 271 | 12.9 | 20.9 | 0.00 | 0.00 | 0.00 | 26 | 1020.3 |
| 20260502185504 | 20 | 259 | 12.9 | 19.3 | 0.00 | 0.00 | 0.00 | 25 | 1020.4 |
| 20260502185004 | 20 | 269 | 9.7 | 17.7 | 0.00 | 0.00 | 0.00 | 29 | 1020.6 |
| 20260502184509 | 20 | 266 | 9.7 | 16.1 | 0.00 | 0.00 | 0.00 | 28 | 1020.7 |
| 20260502184004 | 19 | 248 | 6.4 | 16.1 | 0.00 | 0.00 | 0.00 | 28 | 1020.7 |
| 20260502183504 | 20 | 289 | 6.4 | 16.1 | 0.00 | 0.00 | 0.00 | 31 | 1020.8 |
| 20260502183026 | 20 | 193 | 6.4 | 17.7 | 0.00 | 0.00 | 0.00 | 32 | 1020.8 |
| 20260502182504 | 20 | 252 | 8.0 | 19.3 | 0.00 | 0.00 | 0.00 | 30 | 1020.8 |
| 20260502182009 | 19 | 262 | 11.3 | 19.3 | 0.00 | 0.00 | 0.00 | 29 | 1020.8 |
| 20260502181531 | 19 | 177 | 6.4 | 17.7 | 0.00 | 0.00 | 0.00 | 32 | 1021.0 |
| 20260502181008 | 19 | 259 | 6.4 | 17.7 | 0.00 | 0.00 | 0.00 | 30 | 1021.0 |
| 20260502180507 | 18 | 284 | 3.2 | 16.1 | 0.00 | 0.00 | 0.00 | 34 | 1021.0 |
| 20260502170509 | 16 | 321 | 3.2 | 8.0 | 0.00 | 0.00 | 0.00 | 41 | 1021.5 |
| 20260502164010 | 15 | 295 | 3.2 | 8.0 | 0.00 | 0.00 | 0.00 | 42 | 1021.7 |
| 20260502163512 | 15 | 318 | 3.2 | 11.3 | 0.00 | 0.00 | 0.00 | 42 | 1021.7 |
| 20260502163018 | 14 | 261 | 4.8 | 11.3 | 0.00 | 0.00 | 0.00 | 47 | 1021.7 |
| 20260502162503 | 13 | 278 | 4.8 | 9.7 | 0.00 | 0.00 | 0.00 | 50 | 1021.8 |
| 20260502162006 | 13 | 345 | 1.6 | 6.4 | 0.00 | 0.00 | 0.00 | 44 | 1021.7 |
| 20260502161514 | 13 | 331 | 3.2 | 6.4 | 0.00 | 0.00 | 0.00 | 46 | 1021.7 |
| 20260502161006 | 12 | 333 | 3.2 | 9.7 | 0.00 | 0.00 | 0.00 | 49 | 1021.7 |
| 20260502160506 | 12 | 342 | 3.2 | 9.7 | 0.00 | 0.00 | 0.00 | 49 | 1021.7 |
| 20260502152006 | 10 | 257 | 6.4 | 12.9 | 0.00 | 0.00 | 0.00 | 56 | 1021.8 |
| 20260502151515 | 10 | 273 | 4.8 | 12.9 | 0.00 | 0.00 | 0.00 | 56 | 1021.8 |
| 20260502151003 | 11 | 315 | 6.4 | 8.0 | 0.00 | 0.00 | 0.00 | 54 | 1021.6 |
| 20260502150507 | 11 | 236 | 4.8 | 6.4 | 0.00 | 0.00 | 0.00 | 56 | 1021.7 |
| 20260502130513 | 5 | 105 | 1.6 | 4.8 | 0.00 | 0.00 | 0.00 | 54 | 1021.3 |
| 20260502123508 | 3 | 122 | 1.6 | 6.4 | 0.00 | 0.00 | 0.00 | 57 | 1021.3 |
| 20260502123023 | 3 | 91 | 3.2 | 6.4 | 0.00 | 0.00 | 0.00 | 58 | 1021.3 |
| 20260502122508 | 3 | 111 | 3.2 | 4.8 | 0.00 | 0.00 | 0.00 | 58 | 1021.3 |
| 20260502122012 | 3 | 92 | 3.2 | 4.8 | 0.00 | 0.00 | 0.00 | 59 | 1021.3 |
| 20260502121008 | 2 | 101 | 1.6 | 3.2 | 0.00 | 0.00 | 0.00 | 61 | 1021.4 |
| 20260502120504 | 2 | 112 | 1.6 | 3.2 | 0.00 | 0.00 | 0.00 | 62 | 1021.3 |
| 20260502115506 | 2 | 132 | 0.0 | 3.2 | 0.00 | 0.00 | 0.00 | 61 | 1021.3 |
| 20260502115009 | 3 | 132 | 0.0 | 4.8 | 0.00 | 0.00 | 0.00 | 60 | 1021.3 |
| 20260502114516 | 3 | 134 | 3.2 | 4.8 | 0.00 | 0.00 | 0.00 | 60 | 1021.3 |
| 20260502114011 | 3 | 128 | 1.6 | 4.8 | 0.00 | 0.00 | 0.00 | 60 | 1021.3 |
| 20260502113507 | 2 | 131 | 1.6 | 4.8 | 0.00 | 0.00 | 0.00 | 61 | 1021.3 |
| 20260502113023 | 2 | 121 | 3.2 | 3.2 | 0.00 | 0.00 | 0.00 | 61 | 1021.4 |
| 20260502112502 | 2 | 119 | 1.6 | 3.2 | 0.00 | 0.00 | 0.00 | 62 | 1021.5 |
| 20260502112002 | 2 | 126 | 1.6 | 3.2 | 0.00 | 0.00 | 0.00 | 64 | 1021.5 |
| 20260502111504 | 1 | 123 | 1.6 | 3.2 | 0.00 | 0.00 | 0.00 | 65 | 1021.5 |
| 20260502111004 | 1 | 144 | 1.6 | 3.2 | 0.00 | 0.00 | 0.00 | 66 | 1021.6 |
| 20260502110504 | 1 | 144 | 0.0 | 0.0 | 0.00 | 0.00 | 0.00 | 67 | 1021.7 |
| 20260502110009 | 2 | 144 | 0.0 | 3.2 | 0.00 | 0.00 | 0.00 | 65 | 1021.6 |
| 20260502105505 | 2 | 144 | 1.6 | 3.2 | 0.00 | 0.00 | 0.00 | 65 | 1021.6 |
| 20260502105005 | 2 | 144 | 0.0 | 0.0 | 0.00 | 0.00 | 0.00 | 63 | 1021.5 |
| 20260502104521 | 2 | 144 | 0.0 | 0.0 | 0.00 | 0.00 | 0.00 | 63 | 1021.4 |
| 20260502104006 | 2 | 144 | 0.0 | 1.6 | 0.00 | 0.00 | 0.00 | 62 | 1021.4 |
| 20260502103508 | 3 | 144 | 0.0 | 1.6 | 0.00 | 0.00 | 0.00 | 61 | 1021.4 |
| 20260502103018 | 3 | 144 | 0.0 | 3.2 | 0.00 | 0.00 | 0.00 | 59 | 1021.4 |
| 20260502102508 | 3 | 144 | 0.0 | 3.2 | 0.00 | 0.00 | 0.00 | 56 | 1021.4 |
| 20260502102010 | 4 | 130 | 1.6 | 4.8 | 0.00 | 0.00 | 0.00 | 56 | 1021.4 |
| 20260502101542 | 4 | 131 | 1.6 | 6.4 | 0.00 | 0.00 | 0.00 | 55 | 1021.3 |
| 20260502101003 | 4 | 98 | 3.2 | 9.7 | 0.00 | 0.00 | 0.00 | 55 | 1021.3 |
| 20260502100503 | 4 | 117 | 3.2 | 11.3 | 0.00 | 0.00 | 0.00 | 56 | 1021.3 |
| 20260502091523 | 3 | 86 | 0.0 | 3.2 | 0.00 | 0.00 | 0.00 | 59 | 1021.3 |
| 20260502091008 | 3 | 86 | 0.0 | 3.2 | 0.00 | 0.00 | 0.00 | 60 | 1021.4 |
| 20260502090507 | 3 | 86 | 1.6 | 3.2 | 0.00 | 0.00 | 0.00 | 57 | 1021.3 |
| 20260502071516 | 6 | 103 | 0.0 | 4.8 | 0.00 | 0.00 | 0.00 | 52 | 1021.1 |
| 20260502071011 | 6 | 98 | 1.6 | 4.8 | 0.00 | 0.00 | 0.00 | 47 | 1021.0 |
| 20260502070507 | 6 | 105 | 1.6 | 4.8 | 0.00 | 0.00 | 0.00 | 47 | 1021.0 |
| 20260502070022 | 6 | 128 | 0.0 | 4.8 | 0.00 | 0.00 | 0.00 | 48 | 1021.0 |
| 20260502065508 | 6 | 111 | 1.6 | 4.8 | 0.00 | 0.00 | 0.00 | 48 | 1020.8 |
| 20260502065011 | 6 | 114 | 0.0 | 3.2 | 0.00 | 0.00 | 0.00 | 52 | 1020.9 |
| 20260502064524 | 6 | 131 | 0.0 | 0.0 | 0.00 | 0.00 | 0.00 | 50 | 1020.8 |
| 20260502064009 | 6 | 131 | 0.0 | 0.0 | 0.00 | 0.00 | 0.00 | 49 | 1020.7 |
| 20260502063511 | 6 | 131 | 0.0 | 0.0 | 0.00 | 0.00 | 0.00 | 50 | 1020.7 |
| 20260502063037 | 6 | 131 | 0.0 | 0.0 | 0.00 | 0.00 | 0.00 | 50 | 1020.7 |
| 20260502062502 | 6 | 131 | 0.0 | 3.2 | 0.00 | 0.00 | 0.00 | 49 | 1020.7 |
| 20260502062004 | 6 | 131 | 0.0 | 3.2 | 0.00 | 0.00 | 0.00 | 49 | 1020.7 |
| 20260502061512 | 6 | 130 | 1.6 | 3.2 | 0.00 | 0.00 | 0.00 | 50 | 1020.7 |
| 20260502061003 | 6 | 140 | 0.0 | 3.2 | 0.00 | 0.00 | 0.00 | 50 | 1020.7 |
| 20260502060506 | 6 | 136 | 1.6 | 3.2 | 0.00 | 0.00 | 0.00 | 51 | 1020.7 |
| 20260502060017 | 6 | 132 | 1.6 | 3.2 | 0.00 | 0.00 | 0.00 | 55 | 1020.7 |
| 20260502055507 | 6 | 170 | 1.6 | 3.2 | 0.00 | 0.00 | 0.00 | 61 | 1020.7 |
| 20260502055007 | 6 | 254 | 0.0 | 1.6 | 0.00 | 0.00 | 0.00 | 61 | 1020.7 |
| 20260502054522 | 6 | 254 | 0.0 | 3.2 | 0.00 | 0.00 | 0.00 | 58 | 1020.7 |
| 20260502054009 | 6 | 254 | 0.0 | 3.2 | 0.00 | 0.00 | 0.00 | 51 | 1020.8 |
| 20260502053515 | 6 | 243 | 0.0 | 3.2 | 0.00 | 0.00 | 0.00 | 48 | 1020.8 |
| 20260502053024 | 6 | 227 | 0.0 | 3.2 | 0.00 | 0.00 | 0.00 | 51 | 1020.7 |
| 20260502052511 | 6 | 227 | 1.6 | 3.2 | 0.00 | 0.00 | 0.00 | 47 | 1020.7 |
| 20260502052014 | 7 | 110 | 0.0 | 3.2 | 0.00 | 0.00 | 0.00 | 42 | 1020.7 |
| 20260502051530 | 8 | 110 | 0.0 | 3.2 | 0.00 | 0.00 | 0.00 | 40 | 1020.7 |
| 20260502051006 | 8 | 110 | 1.6 | 3.2 | 0.00 | 0.00 | 0.00 | 39 | 1020.7 |
| 20260502050503 | 8 | 110 | 0.0 | 3.2 | 0.00 | 0.00 | 0.00 | 38 | 1020.7 |
| 20260502050015 | 8 | 123 | 1.6 | 3.2 | 0.00 | 0.00 | 0.00 | 39 | 1020.7 |
| 20260502045507 | 8 | 125 | 1.6 | 3.2 | 0.00 | 0.00 | 0.00 | 39 | 1020.7 |
| 20260502045007 | 8 | 125 | 1.6 | 3.2 | 0.00 | 0.00 | 0.00 | 38 | 1020.7 |
| 20260502044520 | 8 | 133 | 0.0 | 4.8 | 0.00 | 0.00 | 0.00 | 38 | 1020.7 |
| 20260502044006 | 8 | 121 | 1.6 | 4.8 | 0.00 | 0.00 | 0.00 | 38 | 1020.7 |
| 20260502043506 | 8 | 122 | 3.2 | 4.8 | 0.00 | 0.00 | 0.00 | 39 | 1020.7 |
| 20260502043024 | 8 | 126 | 1.6 | 4.8 | 0.00 | 0.00 | 0.00 | 39 | 1020.7 |
| 20260502042510 | 8 | 137 | 1.6 | 3.2 | 0.00 | 0.00 | 0.00 | 39 | 1020.7 |
| 20260502042015 | 8 | 137 | 1.6 | 3.2 | 0.00 | 0.00 | 0.00 | 39 | 1020.7 |
| 20260502041528 | 8 | 138 | 1.6 | 3.2 | 0.00 | 0.00 | 0.00 | 38 | 1020.7 |
| 20260502041007 | 9 | 130 | 0.0 | 4.8 | 0.00 | 0.00 | 0.00 | 37 | 1020.7 |
| 20260502040513 | 9 | 129 | 1.6 | 4.8 | 0.00 | 0.00 | 0.00 | 37 | 1020.6 |
| 20260502040013 | 9 | 136 | 3.2 | 4.8 | 0.00 | 0.00 | 0.00 | 38 | 1020.6 |
| 20260502035506 | 9 | 180 | 1.6 | 3.2 | 0.00 | 0.00 | 0.00 | 39 | 1020.5 |
| 20260502035007 | 9 | 169 | 1.6 | 4.8 | 0.00 | 0.00 | 0.00 | 39 | 1020.4 |
| 20260502034525 | 9 | 209 | 1.6 | 6.4 | 0.00 | 0.00 | 0.00 | 40 | 1020.4 |
| 20260502034011 | 10 | 222 | 4.8 | 6.4 | 0.00 | 0.00 | 0.00 | 40 | 1020.3 |
| 20260502033507 | 10 | 182 | 1.6 | 3.2 | 0.00 | 0.00 | 0.00 | 38 | 1020.3 |
| 20260502033024 | 10 | 161 | 1.6 | 3.2 | 0.00 | 0.00 | 0.00 | 38 | 1020.2 |
| 20260502032507 | 11 | 144 | 1.6 | 3.2 | 0.00 | 0.00 | 0.00 | 36 | 1020.2 |
| 20260502032012 | 11 | 144 | 1.6 | 3.2 | 0.00 | 0.00 | 0.00 | 36 | 1020.2 |
| 20260502031528 | 11 | 145 | 0.0 | 4.8 | 0.00 | 0.00 | 0.00 | 33 | 1020.2 |
| 20260502031010 | 12 | 139 | 3.2 | 4.8 | 0.00 | 0.00 | 0.00 | 32 | 1020.1 |
| 20260502030511 | 12 | 128 | 1.6 | 3.2 | 0.00 | 0.00 | 0.00 | 30 | 1020.1 |
| 20260502030030 | 12 | 135 | 1.6 | 3.2 | 0.00 | 0.00 | 0.00 | 29 | 1020.0 |
| 20260502025509 | 13 | 113 | 0.0 | 0.0 | 0.00 | 0.00 | 0.00 | 30 | 1020.0 |
| 20260502025011 | 13 | 113 | 0.0 | 0.0 | 0.00 | 0.00 | 0.00 | 28 | 1020.0 |
| 20260502024514 | 14 | 113 | 0.0 | 0.0 | 0.00 | 0.00 | 0.00 | 25 | 1020.0 |
| 20260502024006 | 14 | 113 | 0.0 | 0.0 | 0.00 | 0.00 | 0.00 | 25 | 1020.0 |
| 20260502023507 | 15 | 113 | 0.0 | 0.0 | 0.00 | 0.00 | 0.00 | 24 | 1020.0 |
| 20260502023023 | 15 | 52 | 0.0 | 0.0 | 0.00 | 0.00 | 0.00 | 23 | 1020.0 |
| 20260502022508 | 15 | 25 | 0.0 | 0.0 | 0.00 | 0.00 | 0.00 | 23 | 1019.9 |
| 20260502022008 | 15 | 9 | 0.0 | 0.0 | 0.00 | 0.00 | 0.00 | 21 | 1019.9 |
| 20260502021522 | 16 | 9 | 0.0 | 0.0 | 0.00 | 0.00 | 0.00 | 20 | 1019.9 |
| 20260502021007 | 16 | 9 | 0.0 | 0.0 | 0.00 | 0.00 | 0.00 | 19 | 1019.9 |
| 20260502020509 | 17 | 9 | 0.0 | 3.2 | 0.00 | 0.00 | 0.00 | 21 | 1019.9 |
| 20260502020035 | 16 | 309 | 0.0 | 3.2 | 0.00 | 0.00 | 0.00 | 21 | 1019.9 |
| 20260502015514 | 17 | 309 | 1.6 | 3.2 | 0.00 | 0.00 | 0.00 | 22 | 1019.9 |
| 20260502015014 | 17 | 346 | 0.0 | 3.2 | 0.00 | 0.00 | 0.00 | 22 | 1019.9 |
| 20260502014528 | 17 | 346 | 0.0 | 6.4 | 0.00 | 0.00 | 0.00 | 22 | 1019.9 |
| 20260502014015 | 17 | 333 | 3.2 | 6.4 | 0.00 | 0.00 | 0.00 | 22 | 1019.8 |
| 20260502013507 | 17 | 341 | 1.6 | 8.0 | 0.00 | 0.00 | 0.00 | 20 | 1019.9 |
| 20260502013017 | 17 | 20 | 4.8 | 8.0 | 0.00 | 0.00 | 0.00 | 21 | 1019.9 |
| 20260502012507 | 17 | 5 | 4.8 | 6.4 | 0.00 | 0.00 | 0.00 | 18 | 1019.9 |
| 20260502012009 | 17 | 5 | 1.6 | 8.0 | 0.00 | 0.00 | 0.00 | 20 | 1019.9 |
| 20260502011525 | 17 | 15 | 4.8 | 8.0 | 0.00 | 0.00 | 0.00 | 19 | 1019.9 |
| 20260502011009 | 17 | 11 | 3.2 | 9.7 | 0.00 | 0.00 | 0.00 | 18 | 1020.0 |
| 20260502010507 | 17 | 15 | 6.4 | 9.7 | 0.00 | 0.00 | 0.00 | 18 | 1020.0 |
| 20260502010025 | 18 | 5 | 3.2 | 8.0 | 0.00 | 0.00 | 0.00 | 19 | 1020.0 |
| 20260502005511 | 18 | 360 | 4.8 | 8.0 | 0.00 | 0.00 | 0.00 | 19 | 1020.0 |
| 20260502005010 | 18 | 360 | 4.8 | 8.0 | 0.00 | 0.00 | 0.00 | 19 | 1020.1 |
| 20260502004529 | 18 | 360 | 1.6 | 11.3 | 0.00 | 0.00 | 0.00 | 20 | 1020.2 |
| 20260502004016 | 18 | 348 | 4.8 | 11.3 | 0.00 | 0.00 | 0.00 | 19 | 1020.2 |
| 20260502003510 | 18 | 5 | 1.6 | 6.4 | 0.00 | 0.00 | 0.00 | 19 | 1020.2 |
| 20260502003030 | 18 | 338 | 3.2 | 9.7 | 0.00 | 0.00 | 0.00 | 18 | 1020.3 |
| 20260502002504 | 18 | 329 | 4.8 | 9.7 | 0.00 | 0.00 | 0.00 | 18 | 1020.3 |
| 20260502002007 | 18 | 9 | 6.4 | 11.3 | 0.00 | 0.00 | 0.00 | 19 | 1020.3 |
| 20260502001523 | 18 | 19 | 6.4 | 11.3 | 0.00 | 0.00 | 0.00 | 18 | 1020.3 |
| 20260502001009 | 18 | 348 | 4.8 | 11.3 | 0.00 | 0.00 | 0.00 | 20 | 1020.3 |
| 20260502000509 | 18 | 296 | 3.2 | 14.5 | 0.00 | 0.00 | 0.00 | 18 | 1020.3 |
| 20260502000028 | 18 | 327 | 8.0 | 14.5 | 0.00 | 0.00 | 0.00 | 20 | 1020.3 |
| 20260501235511 | 18 | 55 | 3.2 | 8.0 | 0.00 | 0.00 | 0.00 | 19 | 1020.3 |
| 20260501235007 | 18 | 330 | 3.2 | 11.3 | 0.00 | 0.00 | 0.00 | 20 | 1020.4 |
| 20260501234530 | 18 | 321 | 4.8 | 14.5 | 0.00 | 0.00 | 0.00 | 20 | 1020.4 |
| 20260501234009 | 18 | 360 | 3.2 | 14.5 | 0.00 | 0.00 | 0.00 | 19 | 1020.3 |
| 20260501233511 | 18 | 268 | 1.6 | 16.1 | 0.00 | 0.00 | 0.00 | 18 | 1020.3 |
| 20260501233030 | 18 | 360 | 6.4 | 16.1 | 0.00 | 0.00 | 0.00 | 21 | 1020.3 |
| 20260501232510 | 18 | 21 | 9.7 | 17.7 | 0.00 | 0.00 | 0.00 | 21 | 1020.4 |
| 20260501232013 | 18 | 337 | 9.7 | 17.7 | 0.00 | 0.00 | 0.00 | 20 | 1020.3 |
| 20260501231519 | 18 | 310 | 6.4 | 9.7 | 0.00 | 0.00 | 0.00 | 23 | 1020.3 |
| 20260501231006 | 18 | 338 | 4.8 | 16.1 | 0.00 | 0.00 | 0.00 | 24 | 1020.3 |
| 20260501230509 | 18 | 352 | 4.8 | 16.1 | 0.00 | 0.00 | 0.00 | 22 | 1020.4 |
| 20260501230034 | 18 | 28 | 3.2 | 16.1 | 0.00 | 0.00 | 0.00 | 24 | 1020.4 |
| 20260501225509 | 18 | 80 | 3.2 | 16.1 | 0.00 | 0.00 | 0.00 | 24 | 1020.5 |
| 20260501225008 | 18 | 350 | 1.6 | 12.9 | 0.00 | 0.00 | 0.00 | 26 | 1020.4 |
| 20260501224529 | 18 | 327 | 4.8 | 14.5 | 0.00 | 0.00 | 0.00 | 26 | 1020.4 |
| 20260501224010 | 18 | 311 | 8.0 | 14.5 | 0.00 | 0.00 | 0.00 | 27 | 1020.4 |
| 20260501223512 | 18 | 21 | 6.4 | 12.9 | 0.00 | 0.00 | 0.00 | 26 | 1020.5 |
| 20260501223028 | 18 | 148 | 1.6 | 14.5 | 0.00 | 0.00 | 0.00 | 25 | 1020.5 |
| 20260501222511 | 18 | 296 | 3.2 | 14.5 | 0.00 | 0.00 | 0.00 | 27 | 1020.6 |
| 20260501222014 | 18 | 322 | 4.8 | 11.3 | 0.00 | 0.00 | 0.00 | 28 | 1020.6 |
| 20260501221528 | 18 | 301 | 4.8 | 8.0 | 0.00 | 0.00 | 0.00 | 26 | 1020.6 |
| 20260501221011 | 18 | 284 | 3.2 | 8.0 | 0.00 | 0.00 | 0.00 | 26 | 1020.7 |
| 20260501220512 | 18 | 327 | 1.6 | 8.0 | 0.00 | 0.00 | 0.00 | 26 | 1020.7 |
| 20260501220051 | 17 | 297 | 1.6 | 6.4 | 0.00 | 0.00 | 0.00 | 26 | 1020.8 |
| 20260501215508 | 17 | 23 | 0.0 | 6.4 | 0.00 | 0.00 | 0.00 | 26 | 1020.9 |
| 20260501215011 | 17 | 49 | 3.2 | 6.4 | 0.00 | 0.00 | 0.00 | 24 | 1021.0 |
| 20260501214528 | 18 | 148 | 3.2 | 6.4 | 0.00 | 0.00 | 0.00 | 27 | 1021.0 |
| 20260501214010 | 17 | 51 | 0.0 | 9.7 | 0.00 | 0.00 | 0.00 | 27 | 1021.1 |
| 20260501213509 | 17 | 181 | 4.8 | 9.7 | 0.00 | 0.00 | 0.00 | 24 | 1021.2 |
| 20260501213030 | 18 | 254 | 4.8 | 12.9 | 0.00 | 0.00 | 0.00 | 31 | 1021.2 |
| 20260501212511 | 18 | 244 | 4.8 | 16.1 | 0.00 | 0.00 | 0.00 | 32 | 1021.4 |
| 20260501212009 | 17 | 276 | 4.8 | 16.1 | 0.00 | 0.00 | 0.00 | 29 | 1021.5 |
| 20260501211528 | 17 | 279 | 3.2 | 16.1 | 0.00 | 0.00 | 0.00 | 26 | 1021.6 |
| 20260501211007 | 17 | 215 | 4.8 | 16.1 | 0.00 | 0.00 | 0.00 | 28 | 1021.7 |
| 20260501210506 | 17 | 281 | 4.8 | 16.1 | 0.00 | 0.00 | 0.00 | 28 | 1021.7 |
| 20260501210021 | 17 | 301 | 4.8 | 17.7 | 0.00 | 0.00 | 0.00 | 32 | 1021.8 |
| 20260501205509 | 17 | 350 | 6.4 | 17.7 | 0.00 | 0.00 | 0.00 | 29 | 1021.8 |
| 20260501205008 | 16 | 16 | 3.2 | 14.5 | 0.00 | 0.00 | 0.00 | 28 | 1021.9 |
| 20260501204525 | 17 | 13 | 3.2 | 14.5 | 0.00 | 0.00 | 0.00 | 32 | 1021.9 |
| 20260501204006 | 17 | 360 | 4.8 | 9.7 | 0.00 | 0.00 | 0.00 | 27 | 1021.9 |
| 20260501203503 | 17 | 348 | 1.6 | 11.3 | 0.00 | 0.00 | 0.00 | 27 | 1021.9 |
| 20260501203012 | 17 | 243 | 8.0 | 11.3 | 0.00 | 0.00 | 0.00 | 29 | 1021.9 |
| 20260501202505 | 17 | 120 | 6.4 | 11.3 | 0.00 | 0.00 | 0.00 | 30 | 1021.9 |
| 20260501202004 | 17 | 220 | 3.2 | 17.7 | 0.00 | 0.00 | 0.00 | 30 | 1021.9 |
| 20260501201520 | 17 | 208 | 6.4 | 17.7 | 0.00 | 0.00 | 0.00 | 34 | 1021.9 |
| 20260501201005 | 17 | 256 | 11.3 | 16.1 | 0.00 | 0.00 | 0.00 | 33 | 1022.0 |
| 20260501200512 | 16 | 312 | 4.8 | 14.5 | 0.00 | 0.00 | 0.00 | 32 | 1022.1 |
| 20260501200020 | 16 | 348 | 6.4 | 12.9 | 0.00 | 0.00 | 0.00 | 29 | 1022.1 |
| 20260501195509 | 16 | 37 | 4.8 | 12.9 | 0.00 | 0.00 | 0.00 | 27 | 1022.0 |
| 20260501195008 | 17 | 260 | 3.2 | 12.9 | 0.00 | 0.00 | 0.00 | 32 | 1022.1 |
| 20260501194524 | 16 | 350 | 4.8 | 14.5 | 0.00 | 0.00 | 0.00 | 30 | 1022.1 |
| 20260501194010 | 16 | 342 | 3.2 | 14.5 | 0.00 | 0.00 | 0.00 | 27 | 1022.1 |
| 20260501193508 | 16 | 211 | 3.2 | 12.9 | 0.00 | 0.00 | 0.00 | 32 | 1022.2 |
| 20260501193036 | 15 | 84 | 4.8 | 16.1 | 0.00 | 0.00 | 0.00 | 28 | 1022.2 |
| 20260501192503 | 16 | 25 | 9.7 | 16.1 | 0.00 | 0.00 | 0.00 | 31 | 1022.3 |
| 20260501192004 | 16 | 11 | 8.0 | 14.5 | 0.00 | 0.00 | 0.00 | 28 | 1022.3 |
| 20260501191516 | 16 | 331 | 1.6 | 11.3 | 0.00 | 0.00 | 0.00 | 29 | 1022.3 |
| 20260501191005 | 16 | 234 | 1.6 | 11.3 | 0.00 | 0.00 | 0.00 | 30 | 1022.3 |
| 20260501190511 | 16 | 255 | 4.8 | 12.9 | 0.00 | 0.00 | 0.00 | 31 | 1022.4 |